EW8689 Weather Reports


time (UTC)temp
C
wind
direction
speed
KPH
gust
KPH
rain 1hr
cm
rain 24hr
cm
rain mn
cm
humidity
%
barometer
mb
20260506163106 14 0.0 0.0 0.00 2.41 1.83 78 1008.0
20260506161605 14 0.0 0.0 0.00 2.41 1.83 78 1008.1
20260506160050 15 0.0 0.0 0.00 2.41 1.83 77 1008.0
20260506154606 15 0.0 0.0 0.00 2.41 1.83 78 1008.1
20260506153041 15 0.0 0.0 0.00 2.41 1.83 74 1008.0
20260506151538 16 0.0 0.0 0.00 2.41 1.83 71 1008.1
20260506150032 16 0.0 0.0 0.00 2.41 1.83 73 1008.0
20260506144527 16 0.0 0.0 0.00 2.41 1.83 75 1008.1
20260506143023 16 0.0 0.0 0.00 2.41 1.83 74 1008.3
20260506141519 15 0.0 0.0 0.00 2.41 1.83 77 1008.4
20260506140021 15 0.0 0.0 0.00 2.41 1.83 82 1008.5
20260506134510 15 0.0 0.0 0.00 2.41 1.83 84 1008.6
20260506133006 15 0.0 0.0 0.00 2.41 1.83 84 1008.7
20260506131502 14 0.0 0.0 0.00 2.41 1.83 84 1008.8
20260506130059 14 0.0 0.0 0.00 2.41 1.83 88 1008.8
20260506124555 13 0.0 0.0 0.00 2.44 1.83 91 1008.8
20260506123049 13 0.0 0.0 0.00 2.44 1.83 93 1008.9
20260506121544 12 0.0 0.0 0.00 2.44 1.83 95 1009.0
20260506120045 12 0.0 0.0 0.00 2.44 1.83 96 1009.0
20260506114536 12 0.0 0.0 0.00 3.00 1.83 96 1009.1
20260506113033 11 0.0 0.0 0.00 3.00 1.83 96 1009.2
20260506111527 11 0.0 0.0 0.00 3.00 1.83 96 1009.3
20260506110023 11 0.0 0.0 0.00 3.00 1.83 96 1009.3
20260506104518 11 0.0 0.0 0.03 3.00 1.83 96 1009.3
20260506103014 11 0.0 0.0 0.05 3.00 1.83 96 1009.4
20260506101509 12 0.0 0.0 0.05 3.00 1.83 96 1009.3
20260506100006 11 0.0 0.0 0.10 3.00 1.83 96 1009.3
20260506094503 11 0.0 0.0 0.13 2.97 1.80 96 1009.2
20260506093056 11 0.0 0.0 0.15 2.97 1.78 96 1009.0
20260506091557 11 0.0 0.0 0.20 2.92 1.75 96 1008.9
20260506090048 10 0.0 0.0 0.23 2.87 1.73 96 1008.7
20260506084545 11 0.0 0.0 0.23 2.84 1.68 96 1008.6
20260506083039 10 0.0 0.0 0.25 2.79 1.63 96 1008.4
20260506081535 10 0.0 0.0 0.33 2.74 1.55 96 1008.3
20260506073022 10 0.0 0.0 0.38 2.54 1.37 96 1007.8
20260506071518 10 0.0 0.0 0.33 2.41 1.24 96 1007.7
20260506061505 10 0.0 0.0 0.30 2.08 0.89 95 1006.9
20260506044543 10 0.0 0.0 0.23 1.68 0.43 95 1006.3
20260506043038 10 0.0 0.0 0.20 1.60 0.36 95 1006.2
20260506041535 10 0.0 0.0 0.20 1.55 0.30 95 1006.2
20260506040037 10 0.0 0.0 0.20 1.50 0.25 95 1006.2
20260506034528 10 0.0 0.0 0.18 1.52 0.20 95 1006.2
20260506033021 10 0.0 0.0 0.15 1.45 0.15 95 1006.3
20260506031517 10 0.0 0.0 0.08 1.42 0.10 95 1006.3
20260506030013 10 0.0 0.0 0.05 1.37 0.05 95 1006.4
20260506024510 10 0.0 0.0 0.03 1.55 0.03 95 1006.4
20260506023004 10 0.0 0.0 0.03 1.55 0.03 95 1006.5
20260506021613 10 0.0 0.0 0.03 1.55 0.03 95 1006.5
20260506020055 10 0.0 0.0 0.00 1.55 0.00 95 1006.4
20260506014551 10 0.0 0.0 0.00 1.65 0.00 95 1006.5
20260506013047 10 0.0 0.0 0.00 1.65 0.00 95 1006.5
20260506011542 10 0.0 0.0 0.00 1.65 0.00 95 1006.8
20260506010048 10 0.0 0.0 0.00 1.65 0.00 94 1007.0
20260506004533 10 0.0 0.0 0.00 1.70 0.00 94 1007.2
20260506003029 10 0.0 0.0 0.00 1.70 0.00 94 1007.4
20260506001525 10 0.0 0.0 0.00 1.70 0.00 94 1007.7
20260506000021 11 0.0 0.0 0.00 1.70 0.00 94 1007.9
20260505234531 11 0.0 0.0 0.00 1.96 0.00 94 1008.0
20260505233012 11 0.0 0.0 0.00 1.96 0.00 94 1008.1
20260505231508 11 0.0 0.0 0.00 1.96 0.00 94 1008.2
20260505230007 11 0.0 0.0 0.00 1.96 0.00 94 1008.3
20260505224559 11 0.0 0.0 0.03 2.16 0.00 93 1008.3
20260505223055 11 0.0 0.0 0.10 2.16 0.00 93 1008.2
20260505221551 11 0.0 0.0 0.23 2.16 0.00 93 1008.4
20260505220049 11 0.0 0.0 0.36 2.16 0.00 92 1008.4
20260505214601 11 0.0 0.0 0.43 2.21 2.13 92 1008.5
20260505213042 11 0.0 0.0 0.38 2.11 2.03 92 1008.6
20260505211533 12 0.0 0.0 0.33 1.98 1.93 91 1008.7
20260505210028 12 0.0 0.0 0.20 1.85 1.80 90 1008.8
20260505204523 13 0.0 0.0 0.13 1.78 1.73 92 1008.8
20260505203121 13 0.0 0.0 0.05 1.73 1.65 92 1008.8
20260505201523 13 0.0 0.0 0.00 1.65 1.60 92 1008.5
20260505200011 12 0.0 0.0 0.00 1.65 1.60 92 1008.3
20260505194507 12 0.0 0.0 0.00 1.65 1.60 91 1008.0
20260505193002 12 0.0 0.0 0.00 1.65 1.60 91 1007.9
20260505191558 12 0.0 0.0 0.00 1.65 1.60 90 1007.5
20260505190056 13 0.0 0.0 0.00 1.65 1.60 89 1007.3
20260505184550 13 0.0 0.0 0.00 1.65 1.60 89 1007.0
20260505183044 13 0.0 0.0 0.00 1.65 1.60 89 1006.8
20260505181542 13 0.0 0.0 0.00 1.65 1.60 89 1006.8
20260505180057 13 0.0 0.0 0.00 1.65 1.60 89 1006.8
20260505174549 13 0.0 0.0 0.00 1.65 1.60 88 1006.9
20260505173033 14 0.0 0.0 0.00 1.65 1.60 86 1006.8
20260505171525 15 0.0 0.0 0.00 1.65 1.60 86 1006.7
20260505170022 15 0.0 0.0 0.05 1.65 1.60 87 1006.7
20260505164515 15 0.0 0.0 0.05 1.65 1.60 89 1007.0